Location: Saddleback Butte
(34.6776°N, 117.8050°W)
Time: 00:06:42
(UTC-07:00)

Iridium 35 - Visible Passes

Search period start: 30 April 2017 00:00
Search period end: 10 May 2017 00:00
Orbit: 776 x 779 km, 86.4° (Epoch: 28 April)

Date Brightness Start Highest point End Pass type
(mag) Time Alt. Az. Time Alt. Az. Time Alt. Az.
30 Apr 5.1 20:15:17 10° N 20:20:27 60° E 20:25:35 10° SSE visible
30 Apr 7.9 21:58:25 10° NW 22:00:32 12° W 22:02:39 10° WSW visible
01 May 7.2 21:23:11 10° NNW 21:27:19 24° W 21:31:27 10° SW visible
02 May 6.1 20:49:01 10° NNW 20:53:59 47° W 20:58:57 10° SSW visible
03 May 5.1 20:15:18 10° N 20:20:33 89° E 20:25:46 10° S visible
04 May 7.8 21:24:03 10° NW 21:27:14 16° W 21:30:24 10° WSW visible
05 May 6.9 20:49:24 10° NNW 20:53:58 31° W 20:58:31 10° SW visible
06 May 5.7 20:15:27 10° N 20:20:35 61° W 20:25:43 10° SSW visible
07 May 8.2 21:25:59 10° WNW 21:27:05 11° WNW 21:28:12 10° W visible
08 May 7.6 20:50:03 10° NW 20:53:54 21° W 20:57:45 10° SW visible
09 May 6.5 20:15:44 10° NNW 20:20:35 40° W 20:25:26 10° SSW visible
